Weather Roundup
Issued by NWS

Home | Current Version | Previous Version | Graphics & Text | Print | Product List | Glossary Off
Versions: 1 2 3 4 5 6 7 8 9 10 11 12 13 14 15 16 17 18 19 20 21 22 23 24 25 26 27 28 29 30 31 32 33 34 35 36 37 38 39 40 41 42 43 44 45 46 47 48 49 50

000
NZUS93 KARX 222210
HRRWXR

CURRENT HOURLY OBSERVATIONS ACROSS
MUCH OF THE UPPER MISSISSIPPI VALLEY
NATIONAL WEATHER SERVICE LA CROSSE WI
500 PM CDT TUE APR 22 2014


...SOUTHEAST MINNESOTA...


CITY           SKY/WX    TMP DP  RH WIND       PRES   REMARKS
ROCHESTER      MOSUNNY   57  32  38 N15G22    30.04F
ROCHESTER/MAYO FAIR      56  24  29 NW13      30.03F
WINONA         SUNNY     59  28  31 N7G24     30.03F
AUSTIN         SUNNY     57  30  35 N8        30.04S
ALBERT LEA     MOSUNNY   57  32  38 N7        30.05S
DODGE CENTER   MOSUNNY   57  21  24 N14G21    30.04F
PRESTON        SUNNY     57  31  37 N16       30.04S
OWATONNA       MOSUNNY   57  28  33 N9        30.05R
FARIBAULT      MOSUNNY   61  27  27 CALM      30.04F
$$

...ELSEWHERE IN MINNESOTA...


CITY           SKY/WX    TMP DP  RH WIND       PRES   REMARKS
MINNEAPOLIS    MOSUNNY   58  26  29 N10G23    30.05F
INTNL FALLS    SUNNY     51  21  30 VRB5      30.07F
DULUTH         SUNNY     53  22  29 N12       30.05F
RED WING       SUNNY     57  25  28 VRB9G16   30.04F
REDWOOD FALLS  SUNNY     61  33  35 NE7       30.03F
MANKATO        MOSUNNY   57  30  35 N8        30.06S
WORTHINGTON    SUNNY     64  28  25 S7        30.03F
FAIRMONT       SUNNY     63  28  27 N6        30.06F
$$

...SOUTHWEST WISCONSIN...


CITY           SKY/WX    TMP DP  RH WIND       PRES   REMARKS
LA CROSSE      SUNNY     60  24  25 N9G20     30.02S
PRAIRIE DU CHI MOSUNNY   58  24  26 N14       30.01F
BOSCOBEL       MOSUNNY   60  23  24 N9G20     30.01F
LONE ROCK      MOSUNNY   59  27  29 NW14      29.99F
PLATTEVILLE    MOSUNNY   58  25  28 NW10G24   30.01S
FORT MC COY    SUNNY     56  20  25 N12G23    30.03S
CAMP DOUGLAS   MOSUNNY   57  25  28 N18       30.01S
VIROQUA        FAIR      56  26  31 N15G22    30.01S
WIS DELLS      SUNNY     56  24  29 NW9G18    29.99S
$$

...ELSEWHERE IN WISCONSIN...


CITY           SKY/WX    TMP DP  RH WIND       PRES   REMARKS
MILWAUKEE      MOSUNNY   46  31  55 E8        30.00R
MADISON        MOSUNNY   58  25  28 NW13G23   29.99S
GREEN BAY      SUNNY     49  30  48 NW15G26   30.02R
EAU CLAIRE     SUNNY     56  20  24 N12G20    30.04F
BLACK RVR FLS  FAIR      56  21  25 NW10G18   30.02F
MEDFORD        SUNNY     48  26  41 N8G17     30.03S
WAUSAU         SUNNY     50  22  33 N16G22    30.01R
WIS RAPIDS     SUNNY     54  24  31 N16G29    30.03R
MARSHFIELD     MOSUNNY   53  25  33 N15G23    30.01F
RICE LAKE      SUNNY     53  23  30 N9        30.07S
$$

...NORTHEAST IOWA...


CITY           SKY/WX    TMP DP  RH WIND       PRES   REMARKS
WATERLOO       SUNNY     60  32  34 N12       30.04F
DUBUQUE        PTSUNNY   58  26  29 NW18      30.00F
DECORAH        MOSUNNY   57  30  35 N17       30.01F
MASON CITY     SUNNY     60  33  36 N7        30.06S
CHARLES CITY   SUNNY     57  34  41 N14       30.04F
OELWEIN        SUNNY    N/A N/A N/A N15G22    30.03F
$$

...ELSEWHERE IN IOWA...


CITY           SKY/WX    TMP DP  RH WIND       PRES   REMARKS
DES MOINES     MOSUNNY   66  31  27 E7        30.04F
IOWA CITY      SUNNY     62  30  29 N9        30.04S
FORT DODGE     SUNNY     61  36  39 NW3       30.06F
MARSHALLTOWN   SUNNY     61  32  33 N8G20     30.04F
CEDAR RAPIDS   SUNNY     61  31  32 NW16G22   30.02F
$$

...NORTHERN ILLINOIS...


CITY           SKY/WX    TMP DP  RH WIND       PRES   REMARKS
CHICAGO-OHARE  MOSUNNY   52  30  43 E13       29.97R
DUPAGE         MOSUNNY   60  28  29 N14G23    29.95S
CHICAGO-MIDWAY MOSUNNY   48  32  53 NE13      29.99R
MOLINE         MOSUNNY   64  27  24 N13       29.99F
ROCKFORD       PTSUNNY   60  25  26 N15G23    29.99S
STERLING       PTSUNNY   61  32  33 N14       29.98S
PEORIA         SUNNY     65  29  25 NW10G21   29.98S
$$

NOTE: "FAIR" INDICATES FEW OR NO CLOUDS BELOW 12,000 FEET WITH NO
SIGNIFICANT WEATHER AND/OR OBSTRUCTIONS TO VISIBILITY. WIND
SPEEDS ARE IN MILES-PER-HOUR.



USA.gov is the U.S. government's official web portal to all federal, state and local government web resources and services.